DELTA 1 DEB

Satellite information

Favourite Embed

Satellite Type and Status

DEBRISIN ORBIT

Key statistics

Satellite DELTA 1 DEB at a glance.

Uptime

18489

Days in orbit

Revolutions

≈ 14.6

Per day

Orbit

SSO

Sun Synchronous Orbit

Inclination

98.7

Latest

Satellite identification and parameters

Extended collection of information and parameters for DELTA 1 DEB.

Object identification

Identified? True

Debris? True

Object name: DELTA 1 DEB

International designator: 1975-004HN

Object number (NORAD): 19105

Object ID (CCSDS): 19105

Country: UNITED STATES OF AMERICA (US)

Current information (Y/N): Y

RCS size: SMALL

Orbital parameters

Period: 98.813 minutes

Inclination: 98.7363 deg

SMA: 7080.069 km

Apoapsis: 744.768 km

Periapsis: 659.101 km

RAAN: 160.0765 deg

Eccentricy: 0.00604986

Argument of periapsis: 323.992 deg

Mean anomaly: 189.4908 deg

Mean motion: 14.57291734 rev/day

Mean motion (dot): 0.00001284 rev/day2

B* drag term: 0.00028864145 1/REarth

Two-line elements (TLE)

Creation date: Sept. 4, 2025, 10:13 a.m.

Reference frame: TEME

Reference center: EARTH

Epoch: Sept. 4, 2025, 5:33 a.m. UTC

TLE line 0: 0 DELTA 1 DEB

TLE line 1: 1 19105U 75004HN 25247.23178594 .00001284 00000-0 28864-3 0 9997

TLE line 2: 2 19105 98.7363 160.0765 0060499 323.9920 189.4908 14.57291734141430

Live tracking on map

Real-time ground track for satellite DELTA 1 DEB.

In-orbit conjunctions

A list of the most updated potential collisions computed for object DELTA 1 DEB.

Target Orbit TCA Probability of collision Miss distance Type
CZ-6A DEB LEO 2025-07-15 16:31:37 0.0001983283 34.0 (m) DEBRIS
CZ-6A DEB LEO 2024-11-28 19:42:45 0.0001775777 959.0 (m) DEBRIS

Associated space launch

Earth observation satellite

DELTA 1 DEB was lifted into orbit during the mission ‘Delta 2910 | Landsat 2’, on board a Delta 2910 space rocket.

The launch took place on Jan. 22, 1975, 5:55 p.m. from Space Launch Complex 2W.

For more information about the launch, click the button.

Launch to space Delta 2910 | Landsat 2
Delta 2910 | Landsat 2

Agency: N/A

Status: Launch Successful

Launch date: Jan. 22, 1975, 5:55 p.m. UTC

Rocket: Delta 2910

Launch pad: Space Launch Complex 2W

Location: Vandenberg SFB, CA, USA

...

Latest news about this satellite

There are no fresh news available about this satellite. Check back as we update our databases every day.


Newsletter sign-up

Weekly statistics, charts and insights to help you stay on top of the space industry.